Year,Month,Day,Hour,Minute,Value (Times are PST for temperature in C)
2022,10,02,00,00,13.20
2022,10,02,00,01,13.20
2022,10,02,00,02,13.10
2022,10,02,00,03,13.10
2022,10,02,00,04,13.10
2022,10,02,00,05,13.10
2022,10,02,00,06,13.10
2022,10,02,00,07,13.10
2022,10,02,00,08,13.00
2022,10,02,00,09,13.00
2022,10,02,00,10,13.00
2022,10,02,00,11,13.00
2022,10,02,00,12,13.00
2022,10,02,00,13,12.90
2022,10,02,00,14,12.90
2022,10,02,00,15,12.90
2022,10,02,00,16,12.90
2022,10,02,00,17,12.90
2022,10,02,00,18,12.80
2022,10,02,00,19,12.80
2022,10,02,00,20,12.80
2022,10,02,00,21,12.80
2022,10,02,00,22,12.80
2022,10,02,00,23,12.80
2022,10,02,00,24,12.80
2022,10,02,00,25,12.80
2022,10,02,00,26,12.80
2022,10,02,00,27,12.80
2022,10,02,00,28,12.80
2022,10,02,00,29,12.80
2022,10,02,00,30,12.80
2022,10,02,00,31,12.80
2022,10,02,00,32,12.80
2022,10,02,00,33,12.80
2022,10,02,00,34,12.70
2022,10,02,00,35,12.70
2022,10,02,00,36,12.70
2022,10,02,00,37,12.70
2022,10,02,00,38,12.70
2022,10,02,00,39,12.70
2022,10,02,00,40,12.70
2022,10,02,00,41,12.70
2022,10,02,00,42,12.70
2022,10,02,00,43,12.70
2022,10,02,00,44,12.70
2022,10,02,00,45,12.60
2022,10,02,00,46,12.60
2022,10,02,00,47,12.60
2022,10,02,00,48,12.60
2022,10,02,00,49,12.60
2022,10,02,00,50,12.60
2022,10,02,00,51,12.60
2022,10,02,00,52,12.60
2022,10,02,00,53,12.60
2022,10,02,00,54,12.50
2022,10,02,00,55,12.50
2022,10,02,00,56,12.50
2022,10,02,00,57,12.50
2022,10,02,00,58,12.50
2022,10,02,00,59,12.50
2022,10,02,01,00,12.50
2022,10,02,01,01,12.40
2022,10,02,01,02,12.40
2022,10,02,01,03,12.40
2022,10,02,01,04,12.40
2022,10,02,01,05,12.40
2022,10,02,01,06,12.40
2022,10,02,01,07,12.40
2022,10,02,01,08,12.40
2022,10,02,01,09,12.30
2022,10,02,01,10,12.30
2022,10,02,01,11,12.30
2022,10,02,01,12,12.30
2022,10,02,01,13,12.30
2022,10,02,01,14,12.30
2022,10,02,01,15,12.30
2022,10,02,01,16,12.40
2022,10,02,01,17,12.40
2022,10,02,01,18,12.40
2022,10,02,01,19,12.40
2022,10,02,01,20,12.40
2022,10,02,01,21,12.40
2022,10,02,01,22,12.40
2022,10,02,01,23,12.30
2022,10,02,01,24,12.40
2022,10,02,01,25,12.40
2022,10,02,01,26,12.40
2022,10,02,01,27,12.40
2022,10,02,01,28,12.40
2022,10,02,01,29,12.40
2022,10,02,01,30,12.50
2022,10,02,01,31,12.50
2022,10,02,01,32,12.50
2022,10,02,01,33,12.40
2022,10,02,01,34,12.30
2022,10,02,01,35,12.30
2022,10,02,01,36,12.30
2022,10,02,01,37,12.30
2022,10,02,01,38,12.30
2022,10,02,01,39,12.20
2022,10,02,01,40,12.20
2022,10,02,01,41,12.20
2022,10,02,01,42,12.20
2022,10,02,01,43,12.20
2022,10,02,01,44,12.20
2022,10,02,01,45,12.20
2022,10,02,01,46,12.20
2022,10,02,01,47,12.30
2022,10,02,01,48,12.30
2022,10,02,01,49,12.30
2022,10,02,01,50,12.30
2022,10,02,01,51,12.30
2022,10,02,01,52,12.30
2022,10,02,01,53,12.30
2022,10,02,01,54,12.30
2022,10,02,01,55,12.30
2022,10,02,01,56,12.30
2022,10,02,01,57,12.30
2022,10,02,01,58,12.30
2022,10,02,01,59,12.30
2022,10,02,02,00,12.30
2022,10,02,02,01,12.30
2022,10,02,02,02,12.40
2022,10,02,02,03,12.50
2022,10,02,02,04,12.50
2022,10,02,02,05,12.60
2022,10,02,02,06,12.60
2022,10,02,02,07,12.60
2022,10,02,02,08,12.60
2022,10,02,02,09,12.60
2022,10,02,02,10,12.60
2022,10,02,02,11,12.60
2022,10,02,02,12,12.60
2022,10,02,02,13,12.60
2022,10,02,02,14,12.60
2022,10,02,02,15,12.60
2022,10,02,02,16,12.60
2022,10,02,02,17,12.60
2022,10,02,02,18,12.60
2022,10,02,02,19,12.60
2022,10,02,02,20,12.60
2022,10,02,02,21,12.60
2022,10,02,02,22,12.50
2022,10,02,02,23,12.50
2022,10,02,02,24,12.40
2022,10,02,02,25,12.40
2022,10,02,02,26,12.40
2022,10,02,02,27,12.40
2022,10,02,02,28,12.40
2022,10,02,02,29,12.40
2022,10,02,02,30,12.30
2022,10,02,02,31,12.30
2022,10,02,02,32,12.30
2022,10,02,02,33,12.30
2022,10,02,02,34,12.30
2022,10,02,02,35,12.30
2022,10,02,02,36,12.30
2022,10,02,02,37,12.20
2022,10,02,02,38,12.20
2022,10,02,02,39,12.20
2022,10,02,02,40,12.10
2022,10,02,02,41,12.10
2022,10,02,02,42,12.10
2022,10,02,02,43,12.10
2022,10,02,02,44,12.10
2022,10,02,02,45,12.00
2022,10,02,02,46,12.00
2022,10,02,02,47,12.00
2022,10,02,02,48,12.00
2022,10,02,02,49,12.00
2022,10,02,02,50,12.00
2022,10,02,02,51,12.00
2022,10,02,02,52,12.00
2022,10,02,02,53,11.90
2022,10,02,02,54,11.90
2022,10,02,02,55,11.90
2022,10,02,02,56,11.90
2022,10,02,02,57,11.80
2022,10,02,02,58,11.80
2022,10,02,02,59,11.80
2022,10,02,03,00,11.80
2022,10,02,03,01,11.80
2022,10,02,03,02,11.80
2022,10,02,03,03,11.80
2022,10,02,03,04,11.80
2022,10,02,03,05,11.80
2022,10,02,03,06,11.80
2022,10,02,03,07,11.70
2022,10,02,03,08,11.70
2022,10,02,03,09,11.70
2022,10,02,03,10,11.70
2022,10,02,03,11,11.70
2022,10,02,03,12,11.70
2022,10,02,03,13,11.70
2022,10,02,03,14,11.60
2022,10,02,03,15,11.60
2022,10,02,03,16,11.60
2022,10,02,03,17,11.60
2022,10,02,03,18,11.60
2022,10,02,03,19,11.60
2022,10,02,03,20,11.60
2022,10,02,03,21,11.60
2022,10,02,03,22,11.60
2022,10,02,03,23,11.60
2022,10,02,03,24,11.60
2022,10,02,03,25,11.60
2022,10,02,03,26,11.60
2022,10,02,03,27,11.60
2022,10,02,03,28,11.60
2022,10,02,03,29,11.60
2022,10,02,03,30,11.60
2022,10,02,03,31,11.60
2022,10,02,03,32,11.60
2022,10,02,03,33,11.60
2022,10,02,03,34,11.60
2022,10,02,03,35,11.60
2022,10,02,03,36,11.60
2022,10,02,03,37,11.60
2022,10,02,03,38,11.70
2022,10,02,03,39,11.70
2022,10,02,03,40,11.70
2022,10,02,03,41,11.70
2022,10,02,03,42,11.70
2022,10,02,03,43,11.70
2022,10,02,03,44,11.70
2022,10,02,03,45,11.60
2022,10,02,03,46,11.60
2022,10,02,03,47,11.60
2022,10,02,03,48,11.60
2022,10,02,03,49,11.60
2022,10,02,03,50,11.50
2022,10,02,03,51,11.40
2022,10,02,03,52,11.40
2022,10,02,03,53,11.40
2022,10,02,03,54,11.40
2022,10,02,03,55,11.40
2022,10,02,03,56,11.40
2022,10,02,03,57,11.40
2022,10,02,03,58,11.40
2022,10,02,03,59,11.40
2022,10,02,04,00,11.40
2022,10,02,04,01,11.40
2022,10,02,04,02,11.40
2022,10,02,04,03,11.40
2022,10,02,04,04,11.30
2022,10,02,04,05,11.30
2022,10,02,04,06,11.20
2022,10,02,04,07,11.20
2022,10,02,04,08,11.20
2022,10,02,04,09,11.20
2022,10,02,04,10,11.20
2022,10,02,04,11,11.20
2022,10,02,04,12,11.10
2022,10,02,04,13,11.10
2022,10,02,04,14,11.10
2022,10,02,04,15,11.10
2022,10,02,04,16,11.10
2022,10,02,04,17,11.10
2022,10,02,04,18,11.10
2022,10,02,04,19,11.10
2022,10,02,04,20,11.10
2022,10,02,04,21,11.10
2022,10,02,04,22,11.10
2022,10,02,04,23,11.10
2022,10,02,04,24,11.10
2022,10,02,04,25,11.10
2022,10,02,04,26,11.10
2022,10,02,04,27,11.20
2022,10,02,04,28,11.20
2022,10,02,04,29,11.30
2022,10,02,04,30,11.30
2022,10,02,04,31,11.40
2022,10,02,04,32,11.40
2022,10,02,04,33,11.40
2022,10,02,04,34,11.40
2022,10,02,04,35,11.40
2022,10,02,04,36,11.40
2022,10,02,04,37,11.40
2022,10,02,04,38,11.50
2022,10,02,04,39,11.60
2022,10,02,04,40,11.60
2022,10,02,04,41,11.60
2022,10,02,04,42,11.60
2022,10,02,04,43,11.60
2022,10,02,04,44,11.60
2022,10,02,04,45,11.60
2022,10,02,04,46,11.60
2022,10,02,04,47,11.60
2022,10,02,04,48,11.60
2022,10,02,04,49,11.60
2022,10,02,04,50,11.60
2022,10,02,04,51,11.60
2022,10,02,04,52,11.60
2022,10,02,04,53,11.60
2022,10,02,04,54,11.60
2022,10,02,04,55,11.60
2022,10,02,04,56,11.60
2022,10,02,04,57,11.60
2022,10,02,04,58,11.60
2022,10,02,04,59,11.60
2022,10,02,05,00,11.60
2022,10,02,05,01,11.50
2022,10,02,05,02,11.40
2022,10,02,05,03,11.40
2022,10,02,05,04,11.40
2022,10,02,05,05,11.40
2022,10,02,05,06,11.40
2022,10,02,05,07,11.40
2022,10,02,05,08,11.40
2022,10,02,05,09,11.40
2022,10,02,05,10,11.40
2022,10,02,05,11,11.40
2022,10,02,05,12,11.40
2022,10,02,05,13,11.40
2022,10,02,05,14,11.40
2022,10,02,05,15,11.40
2022,10,02,05,16,11.40
2022,10,02,05,17,11.40
2022,10,02,05,18,11.40
2022,10,02,05,19,11.40
2022,10,02,05,20,11.40
2022,10,02,05,21,11.40
2022,10,02,05,22,11.40
2022,10,02,05,23,11.40
2022,10,02,05,24,11.40
2022,10,02,05,25,11.40
2022,10,02,05,26,11.40
2022,10,02,05,27,11.40
2022,10,02,05,28,11.40
2022,10,02,05,29,11.40
2022,10,02,05,30,11.40
2022,10,02,05,31,11.40
2022,10,02,05,32,11.40
2022,10,02,05,33,11.30
2022,10,02,05,34,11.30
2022,10,02,05,35,11.30
2022,10,02,05,36,11.30
2022,10,02,05,37,11.20
2022,10,02,05,38,11.20
2022,10,02,05,39,11.20
2022,10,02,05,40,11.20
2022,10,02,05,41,11.20
2022,10,02,05,42,11.20
2022,10,02,05,43,11.20
2022,10,02,05,44,11.30
2022,10,02,05,45,11.30
2022,10,02,05,46,11.30
2022,10,02,05,47,11.30
2022,10,02,05,48,11.30
2022,10,02,05,49,11.30
2022,10,02,05,50,11.30
2022,10,02,05,51,11.30
2022,10,02,05,52,11.20
2022,10,02,05,53,11.20
2022,10,02,05,54,11.20
2022,10,02,05,55,11.10
2022,10,02,05,56,11.10
2022,10,02,05,57,11.10
2022,10,02,05,58,11.10
2022,10,02,05,59,11.10
2022,10,02,06,00,11.10
2022,10,02,06,01,11.10
2022,10,02,06,02,11.10
2022,10,02,06,03,10.90
2022,10,02,06,04,10.90
2022,10,02,06,05,10.90
2022,10,02,06,06,10.90
2022,10,02,06,07,10.90
2022,10,02,06,08,10.90
2022,10,02,06,09,10.90
2022,10,02,06,10,10.80
2022,10,02,06,11,10.80
2022,10,02,06,12,10.80
2022,10,02,06,13,10.80
2022,10,02,06,14,10.70
2022,10,02,06,15,10.70
2022,10,02,06,16,10.70
2022,10,02,06,17,10.70
2022,10,02,06,18,10.70
2022,10,02,06,19,10.60
2022,10,02,06,20,10.60
2022,10,02,06,21,10.60
2022,10,02,06,22,10.60
2022,10,02,06,23,10.60
2022,10,02,06,24,10.60
2022,10,02,06,25,10.60
2022,10,02,06,26,10.60
2022,10,02,06,27,10.60
2022,10,02,06,28,10.60
2022,10,02,06,29,10.60
2022,10,02,06,30,10.60
2022,10,02,06,31,10.60
2022,10,02,06,32,10.60
2022,10,02,06,33,10.60
2022,10,02,06,34,10.60
2022,10,02,06,35,10.60
2022,10,02,06,36,10.60
2022,10,02,06,37,10.60
2022,10,02,06,38,10.60
2022,10,02,06,39,10.60
2022,10,02,06,40,10.60
2022,10,02,06,41,10.60
2022,10,02,06,42,10.60
2022,10,02,06,43,10.60
2022,10,02,06,44,10.60
2022,10,02,06,45,10.60
2022,10,02,06,46,10.60
2022,10,02,06,47,10.60
2022,10,02,06,48,10.60
2022,10,02,06,49,10.60
2022,10,02,06,50,10.60
2022,10,02,06,51,10.70
2022,10,02,06,52,10.70
2022,10,02,06,53,10.70
2022,10,02,06,54,10.70
2022,10,02,06,55,10.70
2022,10,02,06,56,10.70
2022,10,02,06,57,10.70
2022,10,02,06,58,10.70
2022,10,02,06,59,10.70
2022,10,02,07,00,10.70
2022,10,02,07,01,10.70
2022,10,02,07,02,10.70
2022,10,02,07,03,10.70
2022,10,02,07,04,10.60
2022,10,02,07,05,10.60
2022,10,02,07,06,10.60
2022,10,02,07,07,10.50
2022,10,02,07,08,10.40
2022,10,02,07,09,10.40
2022,10,02,07,10,10.40
2022,10,02,07,11,10.40
2022,10,02,07,12,10.40
2022,10,02,07,13,10.40
2022,10,02,07,14,10.40
2022,10,02,07,15,10.40
2022,10,02,07,16,10.40
2022,10,02,07,17,10.30
2022,10,02,07,18,10.30
2022,10,02,07,19,10.30
2022,10,02,07,20,10.30
2022,10,02,07,21,10.30
2022,10,02,07,22,10.30
2022,10,02,07,23,10.40
2022,10,02,07,24,10.40
2022,10,02,07,25,10.40
2022,10,02,07,26,10.40
2022,10,02,07,27,10.40
2022,10,02,07,28,10.40
2022,10,02,07,29,10.50
2022,10,02,07,30,10.60
2022,10,02,07,31,10.60
2022,10,02,07,32,10.60
2022,10,02,07,33,10.50
2022,10,02,07,34,10.40
2022,10,02,07,35,10.40
2022,10,02,07,36,10.30
2022,10,02,07,37,10.30
2022,10,02,07,38,10.40
2022,10,02,07,39,10.40
2022,10,02,07,40,10.40
2022,10,02,07,41,10.30
2022,10,02,07,42,10.30
2022,10,02,07,43,10.30
2022,10,02,07,44,10.30
2022,10,02,07,45,10.30
2022,10,02,07,46,10.30
2022,10,02,07,47,10.20
2022,10,02,07,48,10.20
2022,10,02,07,49,10.20
2022,10,02,07,50,10.20
2022,10,02,07,51,10.20
2022,10,02,07,52,10.20
2022,10,02,07,53,10.30
2022,10,02,07,54,10.30
2022,10,02,07,55,10.30
2022,10,02,07,56,10.30
2022,10,02,07,57,10.40
2022,10,02,07,58,10.40
2022,10,02,07,59,10.50
2022,10,02,08,00,10.60
2022,10,02,08,01,10.60
2022,10,02,08,02,10.60
2022,10,02,08,03,10.70
2022,10,02,08,04,10.70
2022,10,02,08,05,10.70
2022,10,02,08,06,10.80
2022,10,02,08,07,10.80
2022,10,02,08,08,10.90
2022,10,02,08,09,10.90
2022,10,02,08,10,10.90
2022,10,02,08,11,11.00
2022,10,02,08,12,11.10
2022,10,02,08,13,11.10
2022,10,02,08,14,11.10
2022,10,02,08,15,11.20
2022,10,02,08,16,11.20
2022,10,02,08,17,11.20
2022,10,02,08,18,11.30
2022,10,02,08,19,11.30
2022,10,02,08,20,11.40
2022,10,02,08,21,11.40
2022,10,02,08,22,11.40
2022,10,02,08,23,11.50
2022,10,02,08,24,11.60
2022,10,02,08,25,11.60
2022,10,02,08,26,11.60
2022,10,02,08,27,11.70
2022,10,02,08,28,11.80
2022,10,02,08,29,11.80
2022,10,02,08,30,11.90
2022,10,02,08,31,11.90
2022,10,02,08,32,12.00
2022,10,02,08,33,12.00
2022,10,02,08,34,12.10
2022,10,02,08,35,12.10
2022,10,02,08,36,12.10
2022,10,02,08,37,12.20
2022,10,02,08,38,12.30
2022,10,02,08,39,12.30
2022,10,02,08,40,12.30
2022,10,02,08,41,12.40
2022,10,02,08,42,12.40
2022,10,02,08,43,12.50
2022,10,02,08,44,12.50
2022,10,02,08,45,12.60
2022,10,02,08,46,12.60
2022,10,02,08,47,12.70
2022,10,02,08,48,12.70
2022,10,02,08,49,12.80
2022,10,02,08,50,12.90
2022,10,02,08,51,13.00
2022,10,02,08,52,13.10
2022,10,02,08,53,13.20
2022,10,02,08,54,13.30
2022,10,02,08,55,13.40
2022,10,02,08,56,13.50
2022,10,02,08,57,13.60
2022,10,02,08,58,13.60
2022,10,02,08,59,13.70
2022,10,02,09,00,13.80
2022,10,02,09,01,13.80
2022,10,02,09,02,13.90
2022,10,02,09,03,14.00
2022,10,02,09,04,14.10
2022,10,02,09,05,14.30
2022,10,02,09,06,14.40
2022,10,02,09,07,14.50
2022,10,02,09,08,14.60
2022,10,02,09,09,14.80
2022,10,02,09,10,14.90
2022,10,02,09,11,15.00
2022,10,02,09,12,15.20
2022,10,02,09,13,15.30
2022,10,02,09,14,15.40
2022,10,02,09,15,15.50
2022,10,02,09,16,15.60
2022,10,02,09,17,15.70
2022,10,02,09,18,15.80
2022,10,02,09,19,15.90
2022,10,02,09,20,16.10
2022,10,02,09,21,16.10
2022,10,02,09,22,16.20
2022,10,02,09,23,16.30
2022,10,02,09,24,16.40
2022,10,02,09,25,16.40
2022,10,02,09,26,16.50
2022,10,02,09,27,16.60
2022,10,02,09,28,16.70
2022,10,02,09,29,16.70
2022,10,02,09,30,16.80
2022,10,02,09,31,16.90
2022,10,02,09,32,16.90
2022,10,02,09,33,17.00
2022,10,02,09,34,17.00
2022,10,02,09,35,17.10
2022,10,02,09,36,17.20
2022,10,02,09,37,17.30
2022,10,02,09,38,17.30
2022,10,02,09,39,17.30
2022,10,02,09,40,17.40
2022,10,02,09,41,17.40
2022,10,02,09,42,17.40
2022,10,02,09,43,17.50
2022,10,02,09,44,17.50
2022,10,02,09,45,17.50
2022,10,02,09,46,17.60
2022,10,02,09,47,17.60
2022,10,02,09,48,17.70
2022,10,02,09,49,17.70
2022,10,02,09,50,17.80
2022,10,02,09,51,17.90
2022,10,02,09,52,17.90
2022,10,02,09,53,18.00
2022,10,02,09,54,18.10
2022,10,02,09,55,18.20
2022,10,02,09,56,18.20
2022,10,02,09,57,18.20
2022,10,02,09,58,18.30
2022,10,02,09,59,18.30
2022,10,02,10,00,18.30
2022,10,02,10,01,18.30
2022,10,02,10,02,18.40
2022,10,02,10,03,18.50
2022,10,02,10,04,18.50
2022,10,02,10,05,18.60
2022,10,02,10,06,18.70
2022,10,02,10,07,18.70
2022,10,02,10,08,18.80
2022,10,02,10,09,18.80
2022,10,02,10,10,18.90
2022,10,02,10,11,18.90
2022,10,02,10,12,18.90
2022,10,02,10,13,18.90
2022,10,02,10,14,18.90
2022,10,02,10,15,18.90
2022,10,02,10,16,18.90
2022,10,02,10,17,19.10
2022,10,02,10,18,19.10
2022,10,02,10,19,19.10
2022,10,02,10,20,19.10
2022,10,02,10,21,19.20
2022,10,02,10,22,19.30
2022,10,02,10,23,19.30
2022,10,02,10,24,19.40
2022,10,02,10,25,19.40
2022,10,02,10,26,19.40
2022,10,02,10,27,19.50
2022,10,02,10,28,19.50
2022,10,02,10,29,19.40
2022,10,02,10,30,19.40
2022,10,02,10,31,19.50
2022,10,02,10,32,19.50
2022,10,02,10,33,19.50
2022,10,02,10,34,19.50
2022,10,02,10,35,19.50
2022,10,02,10,36,19.50
2022,10,02,10,37,19.50
2022,10,02,10,38,19.50
2022,10,02,10,39,19.50
2022,10,02,10,40,19.50
2022,10,02,10,41,19.40
2022,10,02,10,42,19.40
2022,10,02,10,43,19.40
2022,10,02,10,44,19.40
2022,10,02,10,45,19.50
2022,10,02,10,46,19.50
2022,10,02,10,47,19.50
2022,10,02,10,48,19.60
2022,10,02,10,49,19.60
2022,10,02,10,50,19.60
2022,10,02,10,51,19.60
2022,10,02,10,52,19.70
2022,10,02,10,53,19.70
2022,10,02,10,54,19.80
2022,10,02,10,55,19.90
2022,10,02,10,56,19.90
2022,10,02,10,57,19.90
2022,10,02,10,58,19.90
2022,10,02,10,59,20.00
2022,10,02,11,00,20.10
2022,10,02,11,01,20.10
2022,10,02,11,02,20.10
2022,10,02,11,03,20.20
2022,10,02,11,04,20.20
2022,10,02,11,05,20.10
2022,10,02,11,06,20.10
2022,10,02,11,07,20.10
2022,10,02,11,08,20.10
2022,10,02,11,09,20.00
2022,10,02,11,10,19.90
2022,10,02,11,11,19.90
2022,10,02,11,12,19.90
2022,10,02,11,13,19.90
2022,10,02,11,14,19.80
2022,10,02,11,15,19.80
2022,10,02,11,16,19.80
2022,10,02,11,17,19.80
2022,10,02,11,18,19.80
2022,10,02,11,19,19.80
2022,10,02,11,20,19.90
2022,10,02,11,21,19.90
2022,10,02,11,22,19.90
2022,10,02,11,23,20.00
2022,10,02,11,24,20.10
2022,10,02,11,25,20.10
2022,10,02,11,26,20.20
2022,10,02,11,27,20.20
2022,10,02,11,28,20.20
2022,10,02,11,29,20.20
2022,10,02,11,30,20.30
2022,10,02,11,31,20.30
2022,10,02,11,32,20.40
2022,10,02,11,33,20.40
2022,10,02,11,34,20.50
2022,10,02,11,35,20.50
2022,10,02,11,36,20.60
2022,10,02,11,37,20.60
2022,10,02,11,38,20.60
2022,10,02,11,39,20.70
2022,10,02,11,40,20.70
2022,10,02,11,41,20.80
2022,10,02,11,42,20.80
2022,10,02,11,43,20.80
2022,10,02,11,44,20.90
2022,10,02,11,45,20.90
2022,10,02,11,46,20.90
2022,10,02,11,47,20.90
2022,10,02,11,48,20.90
2022,10,02,11,49,21.00
2022,10,02,11,50,20.90
2022,10,02,11,51,20.90
2022,10,02,11,52,20.90
2022,10,02,11,53,20.90
2022,10,02,11,54,20.90
2022,10,02,11,55,20.90
2022,10,02,11,56,20.90
2022,10,02,11,57,21.00
2022,10,02,11,58,21.00
2022,10,02,11,59,21.10
2022,10,02,12,00,21.10
2022,10,02,12,01,21.10
2022,10,02,12,02,21.10
2022,10,02,12,03,21.20
2022,10,02,12,04,21.30
2022,10,02,12,05,21.30
2022,10,02,12,06,21.30
2022,10,02,12,07,21.30
2022,10,02,12,08,21.40
2022,10,02,12,09,21.40
2022,10,02,12,10,21.40
2022,10,02,12,11,21.50
2022,10,02,12,12,21.60
2022,10,02,12,13,21.60
2022,10,02,12,14,21.70
2022,10,02,12,15,21.70
2022,10,02,12,16,21.80
2022,10,02,12,17,21.90
2022,10,02,12,18,21.90
2022,10,02,12,19,21.90
2022,10,02,12,20,22.00
2022,10,02,12,21,22.00
2022,10,02,12,22,22.10
2022,10,02,12,23,22.10
2022,10,02,12,24,22.10
2022,10,02,12,25,22.10
2022,10,02,12,26,22.10
2022,10,02,12,27,22.10
2022,10,02,12,28,22.10
2022,10,02,12,29,22.10
2022,10,02,12,30,22.10
2022,10,02,12,31,22.10
2022,10,02,12,32,22.20
2022,10,02,12,33,22.20
2022,10,02,12,34,22.30
2022,10,02,12,35,22.40
2022,10,02,12,36,22.50
2022,10,02,12,37,22.60
2022,10,02,12,38,22.60
2022,10,02,12,39,22.70
2022,10,02,12,40,22.70
2022,10,02,12,41,22.80
2022,10,02,12,42,22.80
2022,10,02,12,43,22.80
2022,10,02,12,44,22.80
2022,10,02,12,45,22.80
2022,10,02,12,46,22.80
2022,10,02,12,47,22.80
2022,10,02,12,48,22.90
2022,10,02,12,49,22.90
2022,10,02,12,50,22.90
2022,10,02,12,51,23.00
2022,10,02,12,52,23.10
2022,10,02,12,53,23.10
2022,10,02,12,54,23.20
2022,10,02,12,55,23.20
2022,10,02,12,56,23.30
2022,10,02,12,57,23.30
2022,10,02,12,58,23.30
2022,10,02,12,59,23.40
2022,10,02,13,00,23.40
2022,10,02,13,01,23.40
2022,10,02,13,02,23.40
2022,10,02,13,03,23.40
2022,10,02,13,04,23.50
2022,10,02,13,05,23.60
2022,10,02,13,06,23.60
2022,10,02,13,07,23.60
2022,10,02,13,08,23.50
2022,10,02,13,09,23.50
2022,10,02,13,10,23.40
2022,10,02,13,11,23.40
2022,10,02,13,12,23.40
2022,10,02,13,13,23.30
2022,10,02,13,14,23.40
2022,10,02,13,15,23.40
2022,10,02,13,16,23.60
2022,10,02,13,17,23.60
2022,10,02,13,18,23.60
2022,10,02,13,19,23.70
2022,10,02,13,20,23.70
2022,10,02,13,21,23.70
2022,10,02,13,22,23.70
2022,10,02,13,23,23.80
2022,10,02,13,24,23.80
2022,10,02,13,25,23.80
2022,10,02,13,26,23.80
2022,10,02,13,27,23.80
2022,10,02,13,28,23.80
2022,10,02,13,29,23.80
2022,10,02,13,30,23.70
2022,10,02,13,31,23.70
2022,10,02,13,32,23.70
2022,10,02,13,33,23.70
2022,10,02,13,34,23.80
2022,10,02,13,35,23.80
2022,10,02,13,36,23.80
2022,10,02,13,37,23.90
2022,10,02,13,38,23.90
2022,10,02,13,39,24.00
2022,10,02,13,40,24.10
2022,10,02,13,41,24.10
2022,10,02,13,42,24.10
2022,10,02,13,43,24.10
2022,10,02,13,44,23.90
2022,10,02,13,45,23.90
2022,10,02,13,46,24.00
2022,10,02,13,47,24.10
2022,10,02,13,48,24.10
2022,10,02,13,49,24.10
2022,10,02,13,50,24.20
2022,10,02,13,51,24.30
2022,10,02,13,52,24.40
2022,10,02,13,53,24.50
2022,10,02,13,54,24.50
2022,10,02,13,55,24.50
2022,10,02,13,56,24.50
2022,10,02,13,57,24.50
2022,10,02,13,58,24.50
2022,10,02,13,59,24.50
2022,10,02,14,00,24.40
2022,10,02,14,01,24.40
2022,10,02,14,02,24.30
2022,10,02,14,03,24.30
2022,10,02,14,04,24.20
2022,10,02,14,05,24.30
2022,10,02,14,06,24.30
2022,10,02,14,07,24.40
2022,10,02,14,08,24.40
2022,10,02,14,09,24.50
2022,10,02,14,10,24.50
2022,10,02,14,11,24.50
2022,10,02,14,12,24.50
2022,10,02,14,13,24.50
2022,10,02,14,14,24.40
2022,10,02,14,15,24.50
2022,10,02,14,16,24.50
2022,10,02,14,17,24.50
2022,10,02,14,18,24.40
2022,10,02,14,19,24.40
2022,10,02,14,20,24.40
2022,10,02,14,21,24.40
2022,10,02,14,22,24.40
2022,10,02,14,23,24.40
2022,10,02,14,24,24.40
2022,10,02,14,25,24.40
2022,10,02,14,26,24.40
2022,10,02,14,27,24.40
2022,10,02,14,28,24.40
2022,10,02,14,29,24.40
2022,10,02,14,30,24.40
2022,10,02,14,31,24.40
2022,10,02,14,32,24.30
2022,10,02,14,33,24.30
2022,10,02,14,34,24.30
2022,10,02,14,35,24.30
2022,10,02,14,36,24.30
2022,10,02,14,37,24.30
2022,10,02,14,38,24.40
2022,10,02,14,39,24.40
2022,10,02,14,40,24.40
2022,10,02,14,41,24.40
2022,10,02,14,42,24.50
2022,10,02,14,43,24.50
2022,10,02,14,44,24.50
2022,10,02,14,45,24.60
2022,10,02,14,46,24.60
2022,10,02,14,47,24.50
2022,10,02,14,48,24.50
2022,10,02,14,49,24.50
2022,10,02,14,50,24.40
2022,10,02,14,51,24.40
2022,10,02,14,52,24.40
2022,10,02,14,53,24.40
2022,10,02,14,54,24.40
2022,10,02,14,55,24.40
2022,10,02,14,56,24.40
2022,10,02,14,57,24.40
2022,10,02,14,58,24.50
2022,10,02,14,59,24.50
2022,10,02,15,00,24.50
2022,10,02,15,01,24.50
2022,10,02,15,02,24.50
2022,10,02,15,03,24.60
2022,10,02,15,04,24.60
2022,10,02,15,05,24.70
2022,10,02,15,06,24.70
2022,10,02,15,07,24.70
2022,10,02,15,08,24.70
2022,10,02,15,09,24.70
2022,10,02,15,10,24.70
2022,10,02,15,11,24.60
2022,10,02,15,12,24.60
2022,10,02,15,13,24.60
2022,10,02,15,14,24.60
2022,10,02,15,15,24.60
2022,10,02,15,16,24.60
2022,10,02,15,17,24.60
2022,10,02,15,18,24.60
2022,10,02,15,19,24.60
2022,10,02,15,20,24.70
2022,10,02,15,21,24.70
2022,10,02,15,22,24.80
2022,10,02,15,23,24.80
2022,10,02,15,24,24.80
2022,10,02,15,25,24.80
2022,10,02,15,26,24.80
2022,10,02,15,27,24.80
2022,10,02,15,28,24.80
2022,10,02,15,29,24.80
2022,10,02,15,30,24.80
2022,10,02,15,31,24.80
2022,10,02,15,32,24.70
2022,10,02,15,33,24.70
2022,10,02,15,34,24.70
2022,10,02,15,35,24.60
2022,10,02,15,36,24.50
2022,10,02,15,37,24.50
2022,10,02,15,38,24.40
2022,10,02,15,39,24.40
2022,10,02,15,40,24.40
2022,10,02,15,41,24.40
2022,10,02,15,42,24.30
2022,10,02,15,43,24.30
2022,10,02,15,44,24.30
2022,10,02,15,45,24.30
2022,10,02,15,46,24.40
2022,10,02,15,47,24.40
2022,10,02,15,48,24.40
2022,10,02,15,49,24.40
2022,10,02,15,50,24.50
2022,10,02,15,51,24.50
2022,10,02,15,52,24.50
2022,10,02,15,53,24.50
2022,10,02,15,54,24.50
2022,10,02,15,55,24.50
2022,10,02,15,56,24.50
2022,10,02,15,57,24.50
2022,10,02,15,58,24.50
2022,10,02,15,59,24.50
2022,10,02,16,00,24.40
2022,10,02,16,01,24.40
2022,10,02,16,02,24.30
2022,10,02,16,03,24.20
2022,10,02,16,04,24.20
2022,10,02,16,05,24.10
2022,10,02,16,06,24.10
2022,10,02,16,07,24.10
2022,10,02,16,08,24.10
2022,10,02,16,09,24.10
2022,10,02,16,10,24.10
2022,10,02,16,11,24.10
2022,10,02,16,12,24.20
2022,10,02,16,13,24.20
2022,10,02,16,14,24.20
2022,10,02,16,15,24.20
2022,10,02,16,16,24.10
2022,10,02,16,17,24.10
2022,10,02,16,18,24.10
2022,10,02,16,19,24.10
2022,10,02,16,20,24.10
2022,10,02,16,21,24.10
2022,10,02,16,22,24.10
2022,10,02,16,23,24.10
2022,10,02,16,24,24.10
2022,10,02,16,25,24.10
2022,10,02,16,26,24.10
2022,10,02,16,27,24.20
2022,10,02,16,28,24.20
2022,10,02,16,29,24.20
2022,10,02,16,30,24.30
2022,10,02,16,31,24.30
2022,10,02,16,32,24.20
2022,10,02,16,33,24.10
2022,10,02,16,34,23.90
2022,10,02,16,35,23.70
2022,10,02,16,36,23.60
2022,10,02,16,37,23.50
2022,10,02,16,38,23.30
2022,10,02,16,39,23.30
2022,10,02,16,40,23.30
2022,10,02,16,41,23.20
2022,10,02,16,42,23.20
2022,10,02,16,43,23.10
2022,10,02,16,44,23.10
2022,10,02,16,45,23.00
2022,10,02,16,46,22.90
2022,10,02,16,47,22.80
2022,10,02,16,48,22.70
2022,10,02,16,49,22.60
2022,10,02,16,50,22.60
2022,10,02,16,51,22.50
2022,10,02,16,52,22.40
2022,10,02,16,53,22.30
2022,10,02,16,54,22.20
2022,10,02,16,55,22.20
2022,10,02,16,56,22.10
2022,10,02,16,57,22.00
2022,10,02,16,58,22.00
2022,10,02,16,59,21.90
2022,10,02,17,00,21.90
2022,10,02,17,01,21.80
2022,10,02,17,02,21.70
2022,10,02,17,03,21.60
2022,10,02,17,04,21.60
2022,10,02,17,05,21.50
2022,10,02,17,06,21.40
2022,10,02,17,07,21.50
2022,10,02,17,08,21.60
2022,10,02,17,09,21.60
2022,10,02,17,10,21.60
2022,10,02,17,11,21.60
2022,10,02,17,12,21.60
2022,10,02,17,13,21.60
2022,10,02,17,14,21.60
2022,10,02,17,15,21.60
2022,10,02,17,16,21.60
2022,10,02,17,17,21.70
2022,10,02,17,18,21.70
2022,10,02,17,19,21.70